Storm Lake, IA

4:04 PM CDT on September 20, 2017 (GMT -0500)
Storm Lake Municipal

Weather History for KSLB - November, 2013

Change the Weather History Date:

Tuesday, November 19, 2013

  Actual Average Record
Temperature  
Mean Temperature 42 °F -  
Max Temperature 57 °F 42 °F 64 °F (2003)
Min Temperature 28 °F 26 °F 14 °F (2014)
Degree Days  
Heating Degree Days 22    
Moisture  
Dew Point 30 °F    
Average Humidity 66    
Maximum Humidity 100    
Minimum Humidity 36    
Precipitation  
Precipitation 0.00 in - - ()
Sea Level Pressure  
Sea Level Pressure 29.98 in    
Wind  
Wind Speed 17 mph (SSE)    
Max Wind Speed 33 mph    
Max Gust Speed 41 mph    
Visibility 10 miles    
Events      
Averages and records for this station are not official NWS values.
T = Trace of Precipitation, MM = Missing Value Source: NWS Daily Summary

Daily Weather History Graph

Daily Weather History Graph

Search for Another Location

Airport or City:

Trip Planner

Search our weather history database for the weather conditions in past years. The results will help you decide how hot, cold, wet, or windy it might be!

Date:

Astronomy

Nov. 19, 2013 Rise Set
Actual Time 7:17 AM CST 4:54 PM CST
Civil Twilight 6:46 AM CST 5:25 PM CST
Nautical Twilight 6:12 AM CST 5:59 PM CST
Astronomical Twilight 5:39 AM CST 6:33 PM CST
Moon 6:46 PM CST (11/19) 8:58 AM CST (11/19)
Length of Visible Light 10h 38m
Length of Day
9h 37m
Waning Gibbous, 96% of the Moon is Illuminated
Nov 19
Waning Gibbous
Nov 25
Last Quarter
Dec 2
New
Dec 9
First Quarter
Dec 17
Full

Hourly Weather History & Observations

Time (CST) Temp. Windchill Dew Point Humidity Pressure Visibility Wind Dir Wind Speed Gust Speed Precip Events Conditions
12:15 AM 32.0 °F 23.0 °F 30.2 °F 93% 30.18 in 10.0 mi SE 11.5 mph - N/A   Clear
12:35 AM 32.0 °F 23.0 °F 30.2 °F 93% 30.17 in 10.0 mi SE 11.5 mph 18.4 mph N/A   Clear
12:55 AM 30.2 °F 20.2 °F 28.4 °F 93% 30.17 in 9.0 mi SE 12.7 mph - N/A   Clear
1:15 AM 30.2 °F 20.8 °F 28.4 °F 93% 30.16 in 10.0 mi SE 11.5 mph - N/A   Clear
1:35 AM 30.2 °F 20.2 °F 30.2 °F 100% 30.15 in 10.0 mi SE 12.7 mph - N/A   Clear
1:55 AM 32.0 °F 21.6 °F 30.2 °F 93% 30.15 in 10.0 mi SE 15.0 mph 20.7 mph N/A   Clear
2:15 AM 32.0 °F 22.1 °F 30.2 °F 93% 30.15 in 10.0 mi SE 13.8 mph - N/A   Clear
2:35 AM 32.0 °F 21.2 °F 30.2 °F 93% 30.14 in 10.0 mi SE 16.1 mph 23.0 mph N/A   Clear
2:55 AM 32.0 °F 21.2 °F 30.2 °F 93% 30.14 in 10.0 mi SE 16.1 mph 23.0 mph N/A   Clear
3:15 AM 32.0 °F 21.6 °F 30.2 °F 93% 30.14 in 10.0 mi SE 15.0 mph - N/A   Clear
3:35 AM 30.2 °F 19.3 °F 28.4 °F 93% 30.13 in 10.0 mi SE 15.0 mph - N/A   Clear
3:55 AM 30.2 °F 19.3 °F 28.4 °F 93% 30.12 in 10.0 mi SE 15.0 mph - N/A   Clear
4:15 AM 30.2 °F 19.3 °F 28.4 °F 93% 30.11 in 10.0 mi SE 15.0 mph 20.7 mph N/A   Clear
4:35 AM 30.2 °F 19.8 °F 28.4 °F 93% 30.12 in 10.0 mi SE 13.8 mph - N/A   Clear
4:55 AM 28.4 °F 17.5 °F 28.4 °F 100% 30.11 in 10.0 mi SSE 13.8 mph - N/A   Clear
5:15 AM 28.4 °F 17.5 °F 28.4 °F 100% 30.11 in 10.0 mi SSE 13.8 mph - N/A   Clear
5:35 AM 28.4 °F 17.0 °F 28.4 °F 100% 30.10 in 10.0 mi SSE 15.0 mph - N/A   Clear
5:55 AM 30.2 °F 19.8 °F 28.4 °F 93% 30.10 in 10.0 mi SSE 13.8 mph - N/A   Clear
6:15 AM 30.2 °F 19.3 °F 28.4 °F 93% 30.09 in 10.0 mi SSE 15.0 mph - N/A   Clear
6:35 AM 28.4 °F 17.0 °F 26.6 °F 93% 30.09 in 10.0 mi SSE 15.0 mph - N/A   Clear
6:55 AM 28.4 °F 17.5 °F 26.6 °F 93% 30.09 in 10.0 mi SSE 13.8 mph - N/A   Clear
7:15 AM 28.4 °F 17.0 °F 26.6 °F 93% 30.08 in 10.0 mi SSE 15.0 mph - N/A   Clear
7:35 AM 28.4 °F 17.5 °F 26.6 °F 93% 30.08 in 10.0 mi SSE 13.8 mph - N/A   Clear
7:55 AM 28.4 °F 17.0 °F 26.6 °F 93% 30.08 in 10.0 mi SSE 15.0 mph - N/A   Clear
8:15 AM 30.2 °F 20.2 °F 28.4 °F 93% 30.08 in 10.0 mi SE 12.7 mph - N/A   Clear
8:35 AM 32.0 °F 22.1 °F 28.4 °F 87% 30.07 in 10.0 mi SSE 13.8 mph - N/A   Clear
8:55 AM 33.8 °F 24.3 °F 30.2 °F 87% 30.07 in 10.0 mi SSE 13.8 mph - N/A   Clear
9:15 AM 33.8 °F 25.3 °F 30.2 °F 87% 30.07 in 10.0 mi SSE 11.5 mph - N/A   Clear
9:35 AM 37.4 °F 28.9 °F 32.0 °F 81% 30.06 in 10.0 mi SSE 13.8 mph - N/A   Clear
9:55 AM 39.2 °F 30.8 °F 32.0 °F 75% 30.05 in 10.0 mi South 15.0 mph - N/A   Clear
10:15 AM 42.8 °F 35.1 °F 33.8 °F 70% 30.05 in - South 16.1 mph - N/A   Clear
10:35 AM 44.6 °F 37.2 °F 33.8 °F 66% 30.04 in 10.0 mi South 17.3 mph 24.2 mph N/A   Clear
10:55 AM 46.4 °F 38.3 °F 32.0 °F 57% 30.03 in 10.0 mi South 23.0 mph - N/A   Clear
11:15 AM 50.0 °F - 30.2 °F 47% 30.02 in 10.0 mi South 21.9 mph 29.9 mph N/A   Clear
11:35 AM 50.0 °F - 32.0 °F 50% 30.00 in 10.0 mi South 23.0 mph 28.8 mph N/A   Clear
11:55 AM 51.8 °F - 32.0 °F 47% 29.98 in 10.0 mi South 26.5 mph - N/A   Clear
12:15 PM 51.8 °F - 30.2 °F 44% 29.97 in 10.0 mi South 25.3 mph 31.1 mph N/A   Clear
12:35 PM 53.6 °F - 32.0 °F 44% 29.95 in 10.0 mi South 24.2 mph 32.2 mph N/A   Clear
12:55 PM 53.6 °F - 32.0 °F 44% 29.94 in 10.0 mi South 28.8 mph - N/A   Clear
1:15 PM 55.4 °F - 32.0 °F 41% 29.93 in 10.0 mi South 27.6 mph 34.5 mph N/A   Clear
1:35 PM 55.4 °F - 32.0 °F 41% 29.92 in 10.0 mi South 26.5 mph 34.5 mph N/A   Clear
1:55 PM 55.4 °F - 32.0 °F 41% 29.92 in 10.0 mi South 24.2 mph 34.5 mph N/A   Clear
2:15 PM 57.2 °F - 32.0 °F 38% 29.90 in 10.0 mi South 25.3 mph 36.8 mph N/A   Clear
2:35 PM 57.2 °F - 30.2 °F 36% 29.89 in 10.0 mi South 27.6 mph 36.8 mph N/A   Clear
2:55 PM 57.2 °F - 30.2 °F 36% 29.87 in 10.0 mi South 29.9 mph 36.8 mph N/A   Clear
3:15 PM 55.4 °F - 30.2 °F 38% 29.87 in 10.0 mi South 25.3 mph - N/A   Clear
3:35 PM 53.6 °F - 30.2 °F 41% 29.87 in 10.0 mi South 21.9 mph 29.9 mph N/A   Partly Cloudy
3:55 PM 53.6 °F - 30.2 °F 41% 29.87 in 10.0 mi South 23.0 mph 33.4 mph N/A   Scattered Clouds
4:15 PM 53.6 °F - 28.4 °F 38% 29.87 in 10.0 mi South 21.9 mph 29.9 mph N/A   Mostly Cloudy
4:35 PM 53.6 °F - 28.4 °F 38% 29.86 in 10.0 mi South 23.0 mph - N/A   Overcast
4:55 PM 51.8 °F - 30.2 °F 44% 29.86 in 10.0 mi SSE 21.9 mph - N/A   Mostly Cloudy
5:15 PM 50.0 °F - 30.2 °F 47% 29.86 in 10.0 mi SSE 24.2 mph 31.1 mph N/A   Clear
5:35 PM 50.0 °F - 28.4 °F 43% 29.87 in 10.0 mi SSE 21.9 mph 28.8 mph N/A   Clear
5:55 PM 48.2 °F - 30.2 °F 50% 29.87 in 10.0 mi SSE 18.4 mph 27.6 mph N/A   Clear
6:15 PM 48.2 °F - 30.2 °F 50% 29.87 in 10.0 mi SSE 23.0 mph 28.8 mph N/A   Clear
6:35 PM 48.2 °F - 30.2 °F 50% 29.87 in 10.0 mi SSE 24.2 mph 31.1 mph N/A   Clear
6:55 PM 48.2 °F - 30.2 °F 50% 29.86 in 10.0 mi SSE 24.2 mph 32.2 mph N/A   Clear
7:15 PM 48.2 °F - 30.2 °F 50% 29.86 in 10.0 mi SSE 25.3 mph 34.5 mph N/A   Clear
7:35 PM 48.2 °F - 30.2 °F 50% 29.85 in 10.0 mi SSE 24.2 mph 35.7 mph N/A   Clear
7:55 PM 46.4 °F 36.7 °F 30.2 °F 53% 29.84 in 10.0 mi SSE 33.4 mph 39.1 mph N/A   Partly Cloudy
8:15 PM 48.2 °F - 30.2 °F 50% 29.84 in 10.0 mi SSE 32.2 mph 41.4 mph N/A   Scattered Clouds
8:35 PM 46.4 °F 37.5 °F 30.2 °F 53% 29.84 in 10.0 mi South 27.6 mph 36.8 mph N/A   Mostly Cloudy
8:55 PM 46.4 °F 37.2 °F 30.2 °F 53% 29.84 in 10.0 mi South 29.9 mph 39.1 mph N/A   Mostly Cloudy
9:15 PM 46.4 °F 37.7 °F 30.2 °F 53% 29.85 in 10.0 mi South 26.5 mph 38.0 mph N/A   Mostly Cloudy
9:35 PM 46.4 °F 37.7 °F 30.2 °F 53% 29.85 in 10.0 mi South 26.5 mph 35.7 mph N/A   Overcast
9:55 PM 46.4 °F 37.4 °F 30.2 °F 53% 29.85 in 10.0 mi South 28.8 mph 36.8 mph N/A   Overcast
10:15 PM 46.4 °F 38.1 °F 30.2 °F 53% 29.85 in 10.0 mi South 24.2 mph 34.5 mph N/A   Overcast
10:35 PM 46.4 °F 38.7 °F 30.2 °F 53% 29.86 in 10.0 mi South 20.7 mph 29.9 mph N/A   Overcast
10:55 PM 46.4 °F 38.1 °F 30.2 °F 53% 29.85 in 10.0 mi South 24.2 mph 32.2 mph N/A   Overcast
11:15 PM 46.4 °F 38.1 °F 30.2 °F 53% 29.84 in 10.0 mi South 24.2 mph 31.1 mph N/A   Mostly Cloudy
11:35 PM 48.2 °F - 30.2 °F 50% 29.85 in 10.0 mi South 21.9 mph 31.1 mph N/A   Mostly Cloudy
11:55 PM 48.2 °F - 28.4 °F 46% 29.85 in 10.0 mi South 23.0 mph 31.1 mph N/A   Overcast